Terminal Aerodrome Forecast
Issued by NWS Blacksburg, VA

Current Version | Previous Version | Graphics & Text | Print | Product List | Glossary On
Versions: 1 2 3 4 5 6 7 8 9 10 11 12 13 14 15 16 17 18
000
FTUS41 KRNK 221122
TAFBLF
TAF
KBLF 221122Z 2212/2312 30009KT P6SM SCT025
     FM221400 32011G18KT P6SM BKN015
     FM230100 03004KT P6SM FEW035
     FM230700 VRB03KT P6SM FEW250=

USA.gov is the U.S. government's official web portal to all federal, state and local government web resources and services.